sat.trackr.live / text

‹ back to catalog

STARLINK-33583

NORAD 63503 · 2025-071L

PAYLOAD ACTIVE UNKNOWN

§ Identity

Operator
Country
US
Launch date
2025-04-07
Launch site
AFWTR
Launch vehicle
Mass (kg)
RCS (m²)

Purposes: comms

External: N2YO · Heavens-Above · Gunter

§ Orbital elements

Epoch: 2026-09-20T04:01:14.469312Z

Period
93.85 min
Inclination
53.1587°
Eccentricity
0.0001654
Mean motion
15.34396999 rev/d
Perigee alt
461.6 km
Apogee alt
463.8 km
Semi-major
6,840.8 km
B*
3.4874e-4
RAAN
309.5937°
Arg perigee
97.0612°
Mean anomaly
263.0579°
Rev number
8,264

§ Raw data

STARLINK-335831 63503U 25071L   26263.16752858  .00011423  00000+0  34874-3 0  99922 63503  53.1587 309.5937 0001654  97.0612 263.0579 15.34396999 82645

JSON: /api/v1/satellites/63503 · /tle

For live sub-satellite position, see the globe view (requires WebGL).

§ Visibility from observer

Set your observer location to see the next 7 days of passes ≥ 10°. The values pass through the URL so the page stays shareable.

No JS? Fill the form by hand. The geolocation button needs JavaScript.